Nos coordonnées

Nous sommes à votre écoute du lundi au dimanche de 10:00 à 19:00 au :

+32 (0)495 19 89 53

 

Adresse d'exploitation Adresse de facturation
Chaussée de Nivelles, 629
6230 Buzet
Belgique
Kouter 107/2
9000 Gent
Belgique

contact @ blackhelicopters.be (n'oubliez pas de supprimer les espaces)


Nous retrouver

Il est très fortement conseillé de nous appeler avant de venir sur le terrain, nous pouvons être en mission ou en vol!

 

La carte ci-dessous est interactive, cherchez vos itinéraires, déplacez la pour vous retrouver.

News

Votre panier

Le panier est vide

Météo Charleroi

METAR
EBCI 241950Z 22005KT CAVOK 15/12 Q1018 NOSIG =
EBCI 241710Z 2418/2524 22006KT 9999 FEW030 BECMG 2500/2502 2500 BR PROB40 TEMPO 2502/2508 0400 FG VV001 BECMG 2508/2511 9999 NSW
TAF
EBCI 241710Z 2418/2524 22006KT 9999 FEW030 BECMG 2500/2502 2500 BR PROB40 TEMPO 2502/2508 0400 FG VV001 BECMG 2508/2511 9999 NSW =
Lever / Coucher : 05:33 / 17:36 UTC (Buzet 2021-09-24)